Regional Weather Roundup
Issued by NWS Burlington, VT

Current Version | Previous Version | Text Only | Print | Product List | Glossary Off
Versions: 1 2 3 4 5 6 7 8 9 10 11 12 13 14 15 16 17 18 19 20 21 22 23 24 25 26 27 28 29 30 31 32 33 34 35 36 37 38 39 40 41 42 43 44 45 46 47 48 49 50

000
ASUS41 KBTV 211430
RWRBTV
VERMONT REGIONAL WEATHER ROUNDUP
NATIONAL WEATHER SERVICE BURLINGTON VT
1000 AM EDT MON AUG 21 2017

NOTE: "FAIR" INDICATES FEW OR NO CLOUDS BELOW 12,000 FEET WITH NO
SIGNIFICANT WEATHER AND/OR OBSTRUCTIONS TO VISIBILITY.

* THESE REPORTS ARE NOT UNDER NWS QUALITY CONTROL AND/OR DO NOT
  REPORT WEATHER SUCH AS PRECIPITATION AND FOG.

VTZ001>019-211500-
_____VERMONT_____


CITY           SKY/WX    TMP DP  RH WIND       PRES   REMARKS
BURLINGTON     MOSUNNY   75  62  64 S10       30.11F
MONTPELIER     MOSUNNY   70  62  76 CALM      30.18F
MORRISVILLE    SUNNY     70  61  73 S7        30.14F
ST. JOHNSBURY*   N/A     65  61  87 MISG      30.13F
LYNDONVILLE*   FAIR      62  62  97 SE5       30.18S
MIDDLEBURY*    FAIR      73  62  69 S9        30.14S
RUTLAND*       SUNNY     72  62  71 CALM      30.17F
SPRINGFIELD    MOSUNNY   69  61  75 CALM      30.17F
HIGHGATE*      FAIR      74  63  70 S8        30.10S
NEWPORT*       FAIR      72  63  72 S6        30.13F
BENNINGTON     SUNNY     73  63  70 CALM      30.18F
SUTTON*          N/A     66 N/A N/A MISG        N/A
ISLAND POND*     N/A     70 N/A N/A SW5         N/A
GALLUP MILLS*    N/A     70 N/A N/A MISG        N/A
UNION VILLAGE*   N/A     72 N/A N/A MISG        N/A
MT. MANSFIELD*   N/A     59 N/A N/A W13         N/A

_____LAKE CHAMPLAIN_____


CITY           SKY/WX    TMP DP  RH WIND       PRES   REMARKS
BURTON ISLAND*   N/A     72  63  73 SW13        N/A
COLCHESTER RF*   N/A     70  63  78 S21         N/A
DIAMOND ISL*     N/A     68  63  83 SW8         N/A

$$

NYZ007-026>031-035-052-083-087-211500-
_____NORTHERN NEW YORK_____


CITY           SKY/WX    TMP DP  RH WIND       PRES   REMARKS
PLATTSBURGH    SUNNY     73  64  73 SE10      30.09F
SARANAC LAKE   SUNNY     70  62  76 SW9       30.15F
MASSENA        SUNNY     76  66  71 SW12      30.09S
OGDENSBURG*    FAIR      78  64  63 S7        30.10S
POTSDAM*       SUNNY     75  68  78 SW9       30.11S
STARK FALLS*     N/A     73 N/A N/A W7          N/A
WATERTOWN      SUNNY     76  65  68 SW10      30.11S
FT DRUM        SUNNY     77  60  55 SW10      30.11F
ALBANY         MOSUNNY   72  62  71 S7        30.17F
GLENS FALLS    SUNNY     71  63  75 S9        30.16S

$$
NHZ002-005-011-211500-
_____NEW HAMPSHIRE_____


CITY           SKY/WX    TMP DP  RH WIND       PRES   REMARKS
LEBANON        PTSUNNY   67  61  81 CALM      30.15F
KEENE            N/A    N/A N/A N/A MISG        N/A
MT WASHINGTON  FOG       50  50 100 W35         N/A  VSB 0
PLYMOUTH       FAIR      65  63  95 CALM      30.14F
WHITEFIELD     MOSUNNY   71  61  70 CALM      30.16S

$$

_____REGIONAL QUEBEC LOCATIONS_____


CITY           SKY/WX    TMP DP  RH WIND       PRES   REMARKS
MONTREAL       PTSUNNY   73  66  78 SW13      30.06F
QUEBEC CITY    CLOUDY    68  64  88 SW12      30.02F
SHERBROOKE     SUNNY     72  64  78 SW12G17   30.09S

_____REGIONAL ONTARIO LOCATIONS_____


CITY           SKY/WX    TMP DP  RH WIND       PRES   REMARKS
OTTAWA         MOSUNNY   75  66  73 SW10      30.07R

______KEY______
VSB  - VISIBILITY IN MILES
WCI  - WIND CHILL INDEX
HX   - HEAT INDEX
$$
NNNN




USA.gov is the U.S. government's official web portal to all federal, state and local government web resources and services.